Year,Month,Day,Hour,Minute,Value (Times are PST for temperature in C)
2016,03,30,00,00,5.80
2016,03,30,00,01,5.80
2016,03,30,00,02,5.80
2016,03,30,00,03,5.80
2016,03,30,00,04,5.80
2016,03,30,00,05,5.80
2016,03,30,00,06,5.80
2016,03,30,00,07,5.80
2016,03,30,00,08,5.70
2016,03,30,00,09,5.70
2016,03,30,00,10,5.70
2016,03,30,00,11,5.70
2016,03,30,00,12,5.70
2016,03,30,00,13,5.70
2016,03,30,00,14,5.70
2016,03,30,00,15,5.70
2016,03,30,00,16,5.70
2016,03,30,00,17,5.70
2016,03,30,00,18,5.70
2016,03,30,00,19,5.70
2016,03,30,00,20,5.70
2016,03,30,00,21,5.70
2016,03,30,00,22,5.70
2016,03,30,00,23,5.60
2016,03,30,00,24,5.60
2016,03,30,00,25,5.60
2016,03,30,00,26,5.60
2016,03,30,00,27,5.60
2016,03,30,00,28,5.60
2016,03,30,00,29,5.60
2016,03,30,00,30,5.60
2016,03,30,00,31,5.60
2016,03,30,00,32,5.60
2016,03,30,00,33,5.60
2016,03,30,00,34,5.60
2016,03,30,00,35,5.60
2016,03,30,00,36,5.60
2016,03,30,00,37,5.50
2016,03,30,00,38,5.50
2016,03,30,00,39,5.50
2016,03,30,00,40,5.50
2016,03,30,00,41,5.50
2016,03,30,00,42,5.50
2016,03,30,00,43,5.50
2016,03,30,00,44,5.50
2016,03,30,00,45,5.40
2016,03,30,00,46,5.40
2016,03,30,00,47,5.40
2016,03,30,00,48,5.30
2016,03,30,00,49,5.30
2016,03,30,00,50,5.30
2016,03,30,00,51,5.30
2016,03,30,00,52,5.30
2016,03,30,00,53,5.30
2016,03,30,00,54,5.30
2016,03,30,00,55,5.30
2016,03,30,00,56,5.30
2016,03,30,00,57,5.30
2016,03,30,00,58,5.30
2016,03,30,00,59,5.30
2016,03,30,01,00,5.30
2016,03,30,01,01,5.30
2016,03,30,01,02,5.30
2016,03,30,01,03,5.30
2016,03,30,01,04,5.40
2016,03,30,01,05,5.40
2016,03,30,01,06,5.30
2016,03,30,01,07,5.30
2016,03,30,01,08,5.30
2016,03,30,01,09,5.30
2016,03,30,01,10,5.40
2016,03,30,01,11,5.40
2016,03,30,01,12,5.40
2016,03,30,01,13,5.40
2016,03,30,01,14,5.40
2016,03,30,01,15,5.40
2016,03,30,01,16,5.40
2016,03,30,01,17,5.40
2016,03,30,01,18,5.40
2016,03,30,01,19,5.40
2016,03,30,01,20,5.40
2016,03,30,01,21,5.40
2016,03,30,01,22,5.30
2016,03,30,01,23,5.30
2016,03,30,01,24,5.30
2016,03,30,01,25,5.30
2016,03,30,01,26,5.30
2016,03,30,01,27,5.30
2016,03,30,01,28,5.30
2016,03,30,01,29,5.30
2016,03,30,01,30,5.30
2016,03,30,01,31,5.30
2016,03,30,01,32,5.30
2016,03,30,01,33,5.30
2016,03,30,01,34,5.20
2016,03,30,01,35,5.20
2016,03,30,01,36,5.20
2016,03,30,01,37,5.20
2016,03,30,01,38,5.30
2016,03,30,01,39,5.30
2016,03,30,01,40,5.30
2016,03,30,01,41,5.30
2016,03,30,01,42,5.30
2016,03,30,01,43,5.30
2016,03,30,01,44,5.30
2016,03,30,01,45,5.30
2016,03,30,01,46,5.30
2016,03,30,01,47,5.40
2016,03,30,01,48,5.30
2016,03,30,01,49,5.40
2016,03,30,01,50,5.40
2016,03,30,01,51,5.40
2016,03,30,01,52,5.40
2016,03,30,01,53,5.30
2016,03,30,01,54,5.40
2016,03,30,01,55,5.40
2016,03,30,01,56,5.40
2016,03,30,01,57,5.30
2016,03,30,01,58,5.30
2016,03,30,01,59,5.30
2016,03,30,02,00,5.30
2016,03,30,02,01,5.30
2016,03,30,02,02,5.30
2016,03,30,02,03,5.30
2016,03,30,02,04,5.30
2016,03,30,02,05,5.30
2016,03,30,02,06,5.30
2016,03,30,02,07,5.30
2016,03,30,02,08,5.30
2016,03,30,02,09,5.30
2016,03,30,02,10,5.30
2016,03,30,02,11,5.30
2016,03,30,02,12,5.30
2016,03,30,02,13,5.30
2016,03,30,02,14,5.20
2016,03,30,02,15,5.20
2016,03,30,02,16,5.20
2016,03,30,02,17,5.20
2016,03,30,02,18,5.20
2016,03,30,02,19,5.10
2016,03,30,02,20,5.10
2016,03,30,02,21,5.10
2016,03,30,02,22,5.10
2016,03,30,02,23,5.10
2016,03,30,02,24,5.10
2016,03,30,02,25,5.00
2016,03,30,02,26,5.00
2016,03,30,02,27,5.00
2016,03,30,02,28,5.00
2016,03,30,02,29,5.00
2016,03,30,02,30,5.00
2016,03,30,02,31,5.00
2016,03,30,02,32,5.10
2016,03,30,02,33,5.10
2016,03,30,02,34,5.10
2016,03,30,02,35,5.10
2016,03,30,02,36,5.10
2016,03,30,02,37,5.10
2016,03,30,02,38,5.10
2016,03,30,02,39,5.10
2016,03,30,02,40,5.20
2016,03,30,02,41,5.20
2016,03,30,02,42,5.20
2016,03,30,02,43,5.20
2016,03,30,02,44,5.20
2016,03,30,02,45,5.20
2016,03,30,02,46,5.20
2016,03,30,02,47,5.20
2016,03,30,02,48,5.10
2016,03,30,02,49,5.10
2016,03,30,02,50,5.10
2016,03,30,02,51,5.10
2016,03,30,02,52,5.10
2016,03,30,02,53,5.10
2016,03,30,02,54,5.10
2016,03,30,02,55,5.10
2016,03,30,02,56,5.10
2016,03,30,02,57,5.10
2016,03,30,02,58,5.10
2016,03,30,02,59,5.10
2016,03,30,03,00,5.10
2016,03,30,03,01,5.10
2016,03,30,03,02,5.10
2016,03,30,03,03,5.10
2016,03,30,03,04,5.10
2016,03,30,03,05,5.10
2016,03,30,03,06,5.10
2016,03,30,03,07,5.10
2016,03,30,03,08,5.10
2016,03,30,03,09,5.10
2016,03,30,03,10,5.10
2016,03,30,03,11,5.10
2016,03,30,03,12,5.10
2016,03,30,03,13,5.10
2016,03,30,03,14,5.10
2016,03,30,03,15,5.10
2016,03,30,03,16,5.00
2016,03,30,03,17,5.00
2016,03,30,03,18,5.00
2016,03,30,03,19,5.00
2016,03,30,03,20,5.00
2016,03,30,03,21,5.00
2016,03,30,03,22,5.00
2016,03,30,03,23,5.00
2016,03,30,03,24,5.00
2016,03,30,03,25,5.00
2016,03,30,03,26,5.00
2016,03,30,03,27,5.00
2016,03,30,03,28,5.00
2016,03,30,03,29,5.00
2016,03,30,03,30,5.00
2016,03,30,03,31,5.00
2016,03,30,03,32,5.00
2016,03,30,03,33,4.90
2016,03,30,03,34,4.90
2016,03,30,03,35,4.90
2016,03,30,03,36,4.90
2016,03,30,03,37,4.90
2016,03,30,03,38,4.80
2016,03,30,03,39,4.80
2016,03,30,03,40,4.80
2016,03,30,03,41,4.80
2016,03,30,03,42,4.80
2016,03,30,03,43,4.70
2016,03,30,03,44,4.70
2016,03,30,03,45,4.70
2016,03,30,03,46,4.70
2016,03,30,03,47,4.80
2016,03,30,03,48,4.80
2016,03,30,03,49,4.80
2016,03,30,03,50,4.80
2016,03,30,03,51,4.80
2016,03,30,03,52,4.90
2016,03,30,03,53,4.90
2016,03,30,03,54,4.90
2016,03,30,03,55,4.90
2016,03,30,03,56,4.90
2016,03,30,03,57,4.90
2016,03,30,03,58,4.90
2016,03,30,03,59,4.90
2016,03,30,04,00,4.90
2016,03,30,04,01,4.90
2016,03,30,04,02,4.90
2016,03,30,04,03,4.90
2016,03,30,04,04,4.90
2016,03,30,04,05,4.90
2016,03,30,04,06,4.80
2016,03,30,04,07,4.80
2016,03,30,04,08,4.80
2016,03,30,04,09,4.80
2016,03,30,04,10,4.80
2016,03,30,04,11,4.80
2016,03,30,04,12,4.80
2016,03,30,04,13,4.80
2016,03,30,04,14,4.80
2016,03,30,04,15,4.80
2016,03,30,04,16,4.80
2016,03,30,04,17,4.80
2016,03,30,04,18,4.70
2016,03,30,04,19,4.70
2016,03,30,04,20,4.70
2016,03,30,04,21,4.70
2016,03,30,04,22,4.70
2016,03,30,04,23,4.70
2016,03,30,04,24,4.70
2016,03,30,04,25,4.70
2016,03,30,04,26,4.70
2016,03,30,04,27,4.60
2016,03,30,04,28,4.60
2016,03,30,04,29,4.60
2016,03,30,04,30,4.60
2016,03,30,04,31,4.60
2016,03,30,04,32,4.60
2016,03,30,04,33,4.60
2016,03,30,04,34,4.60
2016,03,30,04,35,4.60
2016,03,30,04,36,4.60
2016,03,30,04,37,4.50
2016,03,30,04,38,4.50
2016,03,30,04,39,4.50
2016,03,30,04,40,4.50
2016,03,30,04,41,4.40
2016,03,30,04,42,4.40
2016,03,30,04,43,4.40
2016,03,30,04,44,4.40
2016,03,30,04,45,4.40
2016,03,30,04,46,4.40
2016,03,30,04,47,4.40
2016,03,30,04,48,4.40
2016,03,30,04,49,4.40
2016,03,30,04,50,4.40
2016,03,30,04,51,4.40
2016,03,30,04,52,4.30
2016,03,30,04,53,4.40
2016,03,30,04,54,4.40
2016,03,30,04,55,4.40
2016,03,30,04,56,4.40
2016,03,30,04,57,4.40
2016,03,30,04,58,4.40
2016,03,30,04,59,4.40
2016,03,30,05,00,4.40
2016,03,30,05,01,4.40
2016,03,30,05,02,4.40
2016,03,30,05,03,4.40
2016,03,30,05,04,4.40
2016,03,30,05,05,4.40
2016,03,30,05,06,4.30
2016,03,30,05,07,4.30
2016,03,30,05,08,4.30
2016,03,30,05,09,4.30
2016,03,30,05,10,4.30
2016,03,30,05,11,4.30
2016,03,30,05,12,4.30
2016,03,30,05,13,4.30
2016,03,30,05,14,4.20
2016,03,30,05,15,4.20
2016,03,30,05,16,4.20
2016,03,30,05,17,4.20
2016,03,30,05,18,4.20
2016,03,30,05,19,4.20
2016,03,30,05,20,4.20
2016,03,30,05,21,4.20
2016,03,30,05,22,4.20
2016,03,30,05,23,4.20
2016,03,30,05,24,4.20
2016,03,30,05,25,4.20
2016,03,30,05,26,4.20
2016,03,30,05,27,4.20
2016,03,30,05,28,4.20
2016,03,30,05,29,4.20
2016,03,30,05,30,4.20
2016,03,30,05,31,4.20
2016,03,30,05,32,4.20
2016,03,30,05,33,4.20
2016,03,30,05,34,4.20
2016,03,30,05,35,4.10
2016,03,30,05,36,4.10
2016,03,30,05,37,4.10
2016,03,30,05,38,4.10
2016,03,30,05,39,4.10
2016,03,30,05,40,4.10
2016,03,30,05,41,4.10
2016,03,30,05,42,4.10
2016,03,30,05,43,4.10
2016,03,30,05,44,4.10
2016,03,30,05,45,4.10
2016,03,30,05,46,4.10
2016,03,30,05,47,4.10
2016,03,30,05,48,4.10
2016,03,30,05,49,4.10
2016,03,30,05,50,4.10
2016,03,30,05,51,4.10
2016,03,30,05,52,4.10
2016,03,30,05,53,4.10
2016,03,30,05,54,4.10
2016,03,30,05,55,4.00
2016,03,30,05,56,4.00
2016,03,30,05,57,4.00
2016,03,30,05,58,3.90
2016,03,30,05,59,3.90
2016,03,30,06,00,3.90
2016,03,30,06,01,3.90
2016,03,30,06,02,3.90
2016,03,30,06,03,3.90
2016,03,30,06,04,4.00
2016,03,30,06,05,4.00
2016,03,30,06,06,4.00
2016,03,30,06,07,4.00
2016,03,30,06,08,4.00
2016,03,30,06,09,4.10
2016,03,30,06,10,4.10
2016,03,30,06,11,4.10
2016,03,30,06,12,4.00
2016,03,30,06,13,4.00
2016,03,30,06,14,4.00
2016,03,30,06,15,4.00
2016,03,30,06,16,4.00
2016,03,30,06,17,4.00
2016,03,30,06,18,4.00
2016,03,30,06,19,4.00
2016,03,30,06,20,4.00
2016,03,30,06,21,4.00
2016,03,30,06,22,4.00
2016,03,30,06,23,4.00
2016,03,30,06,24,3.90
2016,03,30,06,25,3.90
2016,03,30,06,26,3.90
2016,03,30,06,27,3.90
2016,03,30,06,28,3.90
2016,03,30,06,29,3.90
2016,03,30,06,30,3.90
2016,03,30,06,31,3.90
2016,03,30,06,32,3.90
2016,03,30,06,33,3.90
2016,03,30,06,34,3.90
2016,03,30,06,35,3.90
2016,03,30,06,36,3.90
2016,03,30,06,37,3.90
2016,03,30,06,38,3.80
2016,03,30,06,39,3.80
2016,03,30,06,40,3.80
2016,03,30,06,41,3.80
2016,03,30,06,42,3.80
2016,03,30,06,43,3.80
2016,03,30,06,44,3.80
2016,03,30,06,45,3.80
2016,03,30,06,46,3.80
2016,03,30,06,47,3.80
2016,03,30,06,48,3.80
2016,03,30,06,49,3.80
2016,03,30,06,50,3.80
2016,03,30,06,51,3.80
2016,03,30,06,52,3.80
2016,03,30,06,53,3.90
2016,03,30,06,54,3.90
2016,03,30,06,55,3.90
2016,03,30,06,56,4.00
2016,03,30,06,57,4.00
2016,03,30,06,58,4.00
2016,03,30,06,59,4.10
2016,03,30,07,00,4.00
2016,03,30,07,01,4.00
2016,03,30,07,02,4.00
2016,03,30,07,03,4.00
2016,03,30,07,04,3.90
2016,03,30,07,05,3.90
2016,03,30,07,06,3.90
2016,03,30,07,07,3.90
2016,03,30,07,08,3.90
2016,03,30,07,09,3.90
2016,03,30,07,10,3.90
2016,03,30,07,11,3.90
2016,03,30,07,12,3.90
2016,03,30,07,13,3.90
2016,03,30,07,14,3.90
2016,03,30,07,15,3.90
2016,03,30,07,16,3.90
2016,03,30,07,17,3.90
2016,03,30,07,18,3.80
2016,03,30,07,19,3.80
2016,03,30,07,20,3.80
2016,03,30,07,21,3.80
2016,03,30,07,22,3.80
2016,03,30,07,23,3.80
2016,03,30,07,24,3.80
2016,03,30,07,25,3.80
2016,03,30,07,26,3.80
2016,03,30,07,27,3.80
2016,03,30,07,28,3.80
2016,03,30,07,29,3.80
2016,03,30,07,30,3.80
2016,03,30,07,31,3.90
2016,03,30,07,32,3.90
2016,03,30,07,33,3.90
2016,03,30,07,34,3.90
2016,03,30,07,35,3.90
2016,03,30,07,36,3.90
2016,03,30,07,37,3.90
2016,03,30,07,38,3.90
2016,03,30,07,39,3.90
2016,03,30,07,40,3.90
2016,03,30,07,41,3.90
2016,03,30,07,42,3.90
2016,03,30,07,43,3.90
2016,03,30,07,44,3.90
2016,03,30,07,45,3.90
2016,03,30,07,46,3.90
2016,03,30,07,47,3.90
2016,03,30,07,48,3.90
2016,03,30,07,49,3.90
2016,03,30,07,50,3.90
2016,03,30,07,51,3.90
2016,03,30,07,52,3.90
2016,03,30,07,53,3.90
2016,03,30,07,54,3.90
2016,03,30,07,55,3.90
2016,03,30,07,56,4.00
2016,03,30,07,57,4.00
2016,03,30,07,58,4.10
2016,03,30,07,59,4.10
2016,03,30,08,00,4.10
2016,03,30,08,01,4.20
2016,03,30,08,02,4.20
2016,03,30,08,03,4.20
2016,03,30,08,04,4.30
2016,03,30,08,05,4.30
2016,03,30,08,06,4.30
2016,03,30,08,07,4.40
2016,03,30,08,08,4.40
2016,03,30,08,09,4.50
2016,03,30,08,10,4.50
2016,03,30,08,11,4.60
2016,03,30,08,12,4.60
2016,03,30,08,13,4.70
2016,03,30,08,14,4.80
2016,03,30,08,15,4.80
2016,03,30,08,16,4.90
2016,03,30,08,17,5.00
2016,03,30,08,18,5.10
2016,03,30,08,19,5.20
2016,03,30,08,20,5.30
2016,03,30,08,21,5.40
2016,03,30,08,22,5.60
2016,03,30,08,23,5.70
2016,03,30,08,24,5.80
2016,03,30,08,25,5.80
2016,03,30,08,26,5.90
2016,03,30,08,27,6.00
2016,03,30,08,28,6.00
2016,03,30,08,29,6.10
2016,03,30,08,30,6.10
2016,03,30,08,31,6.20
2016,03,30,08,32,6.20
2016,03,30,08,33,6.20
2016,03,30,08,34,6.20
2016,03,30,08,35,6.20
2016,03,30,08,36,6.20
2016,03,30,08,37,6.30
2016,03,30,08,38,6.30
2016,03,30,08,39,6.40
2016,03,30,08,40,6.50
2016,03,30,08,41,6.60
2016,03,30,08,42,6.80
2016,03,30,08,43,6.90
2016,03,30,08,44,7.00
2016,03,30,08,45,7.10
2016,03,30,08,46,7.30
2016,03,30,08,47,7.40
2016,03,30,08,48,7.50
2016,03,30,08,49,7.60
2016,03,30,08,50,7.60
2016,03,30,08,51,7.70
2016,03,30,08,52,7.70
2016,03,30,08,53,7.80
2016,03,30,08,54,7.80
2016,03,30,08,55,7.80
2016,03,30,08,56,7.80
2016,03,30,08,57,7.80
2016,03,30,08,58,7.70
2016,03,30,08,59,7.70
2016,03,30,09,00,7.70
2016,03,30,09,01,7.70
2016,03,30,09,02,7.60
2016,03,30,09,03,7.50
2016,03,30,09,04,7.50
2016,03,30,09,05,7.50
2016,03,30,09,06,7.40
2016,03,30,09,07,7.40
2016,03,30,09,08,7.40
2016,03,30,09,09,7.40
2016,03,30,09,10,7.30
2016,03,30,09,11,7.30
2016,03,30,09,12,7.30
2016,03,30,09,13,7.40
2016,03,30,09,14,7.40
2016,03,30,09,15,7.50
2016,03,30,09,16,7.60
2016,03,30,09,17,7.70
2016,03,30,09,18,7.80
2016,03,30,09,19,7.90
2016,03,30,09,20,8.00
2016,03,30,09,21,8.00
2016,03,30,09,22,8.10
2016,03,30,09,23,8.10
2016,03,30,09,24,8.20
2016,03,30,09,25,8.20
2016,03,30,09,26,8.20
2016,03,30,09,27,8.30
2016,03,30,09,28,8.30
2016,03,30,09,29,8.30
2016,03,30,09,30,8.40
2016,03,30,09,31,8.50
2016,03,30,09,32,8.60
2016,03,30,09,33,8.70
2016,03,30,09,34,8.80
2016,03,30,09,35,8.80
2016,03,30,09,36,8.90
2016,03,30,09,37,8.90
2016,03,30,09,38,8.90
2016,03,30,09,39,9.00
2016,03,30,09,40,9.00
2016,03,30,09,41,9.00
2016,03,30,09,42,9.00
2016,03,30,09,43,9.00
2016,03,30,09,44,9.00
2016,03,30,09,45,9.10
2016,03,30,09,46,9.10
2016,03,30,09,47,9.20
2016,03,30,09,48,9.20
2016,03,30,09,49,9.30
2016,03,30,09,50,9.30
2016,03,30,09,51,9.40
2016,03,30,09,52,9.50
2016,03,30,09,53,9.50
2016,03,30,09,54,9.60
2016,03,30,09,55,9.70
2016,03,30,09,56,9.80
2016,03,30,09,57,9.80
2016,03,30,09,58,9.90
2016,03,30,09,59,10.00
2016,03,30,10,00,10.10
2016,03,30,10,01,10.10
2016,03,30,10,02,10.20
2016,03,30,10,03,10.30
2016,03,30,10,04,10.40
2016,03,30,10,05,10.40
2016,03,30,10,06,10.50
2016,03,30,10,07,10.60
2016,03,30,10,08,10.70
2016,03,30,10,09,10.80
2016,03,30,10,10,10.90
2016,03,30,10,11,11.00
2016,03,30,10,12,11.10
2016,03,30,10,13,11.20
2016,03,30,10,14,11.20
2016,03,30,10,15,11.30
2016,03,30,10,16,11.30
2016,03,30,10,17,11.30
2016,03,30,10,18,11.40
2016,03,30,10,19,11.50
2016,03,30,10,20,11.60
2016,03,30,10,21,11.70
2016,03,30,10,22,11.80
2016,03,30,10,23,12.00
2016,03,30,10,24,12.20
2016,03,30,10,25,12.30
2016,03,30,10,26,12.40
2016,03,30,10,27,12.50
2016,03,30,10,28,12.50
2016,03,30,10,29,12.60
2016,03,30,10,30,12.60
2016,03,30,10,31,12.60
2016,03,30,10,32,12.60
2016,03,30,10,33,12.60
2016,03,30,10,34,12.60
2016,03,30,10,35,12.60
2016,03,30,10,36,12.60
2016,03,30,10,37,12.50
2016,03,30,10,38,12.50
2016,03,30,10,39,12.50
2016,03,30,10,40,12.60
2016,03,30,10,41,12.60
2016,03,30,10,42,12.60
2016,03,30,10,43,12.60
2016,03,30,10,44,12.60
2016,03,30,10,45,12.60
2016,03,30,10,46,12.60
2016,03,30,10,47,12.60
2016,03,30,10,48,12.50
2016,03,30,10,49,12.50
2016,03,30,10,50,12.50
2016,03,30,10,51,12.50
2016,03,30,10,52,12.50
2016,03,30,10,53,12.50
2016,03,30,10,54,12.60
2016,03,30,10,55,12.60
2016,03,30,10,56,12.70
2016,03,30,10,57,12.80
2016,03,30,10,58,12.90
2016,03,30,10,59,13.00
2016,03,30,11,00,13.10
2016,03,30,11,01,13.20
2016,03,30,11,02,13.30
2016,03,30,11,03,13.40
2016,03,30,11,04,13.50
2016,03,30,11,05,13.60
2016,03,30,11,06,13.60
2016,03,30,11,07,13.70
2016,03,30,11,08,13.70
2016,03,30,11,09,13.80
2016,03,30,11,10,13.80
2016,03,30,11,11,13.90
2016,03,30,11,12,14.00
2016,03,30,11,13,14.00
2016,03,30,11,14,14.10
2016,03,30,11,15,14.20
2016,03,30,11,16,14.30
2016,03,30,11,17,14.40
2016,03,30,11,18,14.50
2016,03,30,11,19,14.60
2016,03,30,11,20,14.80
2016,03,30,11,21,14.90
2016,03,30,11,22,15.20
2016,03,30,11,23,15.40
2016,03,30,11,24,15.50
2016,03,30,11,25,15.60
2016,03,30,11,26,15.60
2016,03,30,11,27,15.70
2016,03,30,11,28,15.70
2016,03,30,11,29,15.80
2016,03,30,11,30,15.90
2016,03,30,11,31,16.00
2016,03,30,11,32,16.10
2016,03,30,11,33,16.10
2016,03,30,11,34,16.10
2016,03,30,11,35,16.10
2016,03,30,11,36,16.10
2016,03,30,11,37,16.10
2016,03,30,11,38,16.10
2016,03,30,11,39,16.10
2016,03,30,11,40,16.10
2016,03,30,11,41,16.10
2016,03,30,11,42,16.10
2016,03,30,11,43,16.10
2016,03,30,11,44,16.10
2016,03,30,11,45,16.20
2016,03,30,11,46,16.30
2016,03,30,11,47,16.30
2016,03,30,11,48,16.40
2016,03,30,11,49,16.40
2016,03,30,11,50,16.40
2016,03,30,11,51,16.50
2016,03,30,11,52,16.50
2016,03,30,11,53,16.50
2016,03,30,11,54,16.60
2016,03,30,11,55,16.60
2016,03,30,11,56,16.60
2016,03,30,11,57,16.60
2016,03,30,11,58,16.70
2016,03,30,11,59,16.70
2016,03,30,12,00,16.70
2016,03,30,12,01,16.80
2016,03,30,12,02,16.70
2016,03,30,12,03,16.70
2016,03,30,12,04,16.70
2016,03,30,12,05,16.70
2016,03,30,12,06,16.60
2016,03,30,12,07,16.50
2016,03,30,12,08,16.40
2016,03,30,12,09,16.40
2016,03,30,12,10,16.40
2016,03,30,12,11,16.40
2016,03,30,12,12,16.40
2016,03,30,12,13,16.40
2016,03,30,12,14,16.40
2016,03,30,12,15,16.50
2016,03,30,12,16,16.60
2016,03,30,12,17,16.60
2016,03,30,12,18,16.60
2016,03,30,12,19,16.50
2016,03,30,12,20,16.40
2016,03,30,12,21,16.40
2016,03,30,12,22,16.30
2016,03,30,12,23,16.30
2016,03,30,12,24,16.30
2016,03,30,12,25,16.30
2016,03,30,12,26,16.30
2016,03,30,12,27,16.40
2016,03,30,12,28,16.20
2016,03,30,12,29,16.10
2016,03,30,12,30,16.10
2016,03,30,12,31,16.00
2016,03,30,12,32,16.00
2016,03,30,12,33,16.00
2016,03,30,12,34,16.00
2016,03,30,12,35,16.10
2016,03,30,12,36,16.10
2016,03,30,12,37,16.20
2016,03,30,12,38,16.20
2016,03,30,12,39,16.30
2016,03,30,12,40,16.30
2016,03,30,12,41,16.40
2016,03,30,12,42,16.40
2016,03,30,12,43,16.40
2016,03,30,12,44,16.50
2016,03,30,12,45,16.60
2016,03,30,12,46,16.70
2016,03,30,12,47,16.80
2016,03,30,12,48,16.90
2016,03,30,12,49,17.00
2016,03,30,12,50,17.10
2016,03,30,12,51,17.10
2016,03,30,12,52,17.20
2016,03,30,12,53,17.20
2016,03,30,12,54,17.20
2016,03,30,12,55,17.30
2016,03,30,12,56,17.30
2016,03,30,12,57,17.30
2016,03,30,12,58,17.30
2016,03,30,12,59,17.30
2016,03,30,13,00,17.30
2016,03,30,13,01,17.20
2016,03,30,13,02,17.20
2016,03,30,13,03,17.20
2016,03,30,13,04,17.30
2016,03,30,13,05,17.30
2016,03,30,13,06,17.30
2016,03,30,13,07,17.40
2016,03,30,13,08,17.40
2016,03,30,13,09,17.50
2016,03,30,13,10,17.50
2016,03,30,13,11,17.50
2016,03,30,13,12,17.60
2016,03,30,13,13,17.60
2016,03,30,13,14,17.70
2016,03,30,13,15,17.70
2016,03,30,13,16,17.70
2016,03,30,13,17,17.80
2016,03,30,13,18,17.80
2016,03,30,13,19,17.80
2016,03,30,13,20,17.90
2016,03,30,13,21,17.90
2016,03,30,13,22,17.90
2016,03,30,13,23,17.90
2016,03,30,13,24,17.90
2016,03,30,13,25,18.00
2016,03,30,13,26,18.10
2016,03,30,13,27,18.10
2016,03,30,13,28,18.10
2016,03,30,13,29,18.10
2016,03,30,13,30,18.10
2016,03,30,13,31,18.10
2016,03,30,13,32,18.10
2016,03,30,13,33,18.10
2016,03,30,13,34,18.20
2016,03,30,13,35,18.20
2016,03,30,13,36,18.20
2016,03,30,13,37,18.20
2016,03,30,13,38,18.10
2016,03,30,13,39,18.10
2016,03,30,13,40,18.10
2016,03,30,13,41,18.10
2016,03,30,13,42,18.20
2016,03,30,13,43,18.10
2016,03,30,13,44,18.10
2016,03,30,13,45,18.00
2016,03,30,13,46,18.00
2016,03,30,13,47,18.10
2016,03,30,13,48,18.10
2016,03,30,13,49,18.20
2016,03,30,13,50,18.20
2016,03,30,13,51,18.20
2016,03,30,13,52,18.20
2016,03,30,13,53,18.20
2016,03,30,13,54,18.20
2016,03,30,13,55,18.20
2016,03,30,13,56,18.10
2016,03,30,13,57,18.10
2016,03,30,13,58,18.10
2016,03,30,13,59,18.00
2016,03,30,14,00,18.00
2016,03,30,14,01,18.00
2016,03,30,14,02,17.90
2016,03,30,14,03,17.90
2016,03,30,14,04,17.90
2016,03,30,14,05,17.90
2016,03,30,14,06,18.00
2016,03,30,14,07,17.90
2016,03,30,14,08,17.90
2016,03,30,14,09,18.00
2016,03,30,14,10,18.00
2016,03,30,14,11,17.90
2016,03,30,14,12,17.90
2016,03,30,14,13,17.90
2016,03,30,14,14,17.90
2016,03,30,14,15,17.90
2016,03,30,14,16,17.90
2016,03,30,14,17,17.90
2016,03,30,14,18,18.00
2016,03,30,14,19,18.00
2016,03,30,14,20,18.10
2016,03,30,14,21,18.10
2016,03,30,14,22,18.10
2016,03,30,14,23,18.10
2016,03,30,14,24,18.10
2016,03,30,14,25,18.00
2016,03,30,14,26,18.00
2016,03,30,14,27,18.00
2016,03,30,14,28,18.00
2016,03,30,14,29,18.00
2016,03,30,14,30,17.90
2016,03,30,14,31,17.90
2016,03,30,14,32,17.90
2016,03,30,14,33,17.80
2016,03,30,14,34,17.80
2016,03,30,14,35,17.80
2016,03,30,14,36,17.80
2016,03,30,14,37,17.90
2016,03,30,14,38,17.90
2016,03,30,14,39,17.90
2016,03,30,14,40,18.00
2016,03,30,14,41,18.00
2016,03,30,14,42,17.90
2016,03,30,14,43,18.00
2016,03,30,14,44,18.00
2016,03,30,14,45,18.00
2016,03,30,14,46,17.90
2016,03,30,14,47,17.90
2016,03,30,14,48,17.90
2016,03,30,14,49,17.90
2016,03,30,14,50,17.90
2016,03,30,14,51,17.90
2016,03,30,14,52,17.80
2016,03,30,14,53,17.80
2016,03,30,14,54,17.90
2016,03,30,14,55,17.90
2016,03,30,14,56,17.90
2016,03,30,14,57,17.90
2016,03,30,14,58,17.90
2016,03,30,14,59,17.90
2016,03,30,15,00,17.90
2016,03,30,15,01,17.90
2016,03,30,15,02,17.80
2016,03,30,15,03,17.80
2016,03,30,15,04,17.80
2016,03,30,15,05,17.80
2016,03,30,15,06,17.80
2016,03,30,15,07,17.80
2016,03,30,15,08,17.90
2016,03,30,15,09,17.90
2016,03,30,15,10,18.00
2016,03,30,15,11,18.10
2016,03,30,15,12,18.10
2016,03,30,15,13,18.20
2016,03,30,15,14,18.20
2016,03,30,15,15,18.10
2016,03,30,15,16,18.10
2016,03,30,15,17,18.00
2016,03,30,15,18,18.10
2016,03,30,15,19,18.10
2016,03,30,15,20,18.10
2016,03,30,15,21,18.10
2016,03,30,15,22,18.10
2016,03,30,15,23,18.10
2016,03,30,15,24,18.20
2016,03,30,15,25,18.10
2016,03,30,15,26,18.00
2016,03,30,15,27,18.00
2016,03,30,15,28,18.00
2016,03,30,15,29,18.00
2016,03,30,15,30,18.10
2016,03,30,15,31,18.00
2016,03,30,15,32,17.90
2016,03,30,15,33,17.90
2016,03,30,15,34,17.90
2016,03,30,15,35,18.00
2016,03,30,15,36,18.10
2016,03,30,15,37,18.10
2016,03,30,15,38,18.10
2016,03,30,15,39,18.10
2016,03,30,15,40,18.10
2016,03,30,15,41,18.10
2016,03,30,15,42,18.10
2016,03,30,15,43,18.10
2016,03,30,15,44,18.10
2016,03,30,15,45,18.10
2016,03,30,15,46,18.20
2016,03,30,15,47,18.20
2016,03,30,15,48,18.20
2016,03,30,15,49,18.30
2016,03,30,15,50,18.30
2016,03,30,15,51,18.30
2016,03,30,15,52,18.30
2016,03,30,15,53,18.30
2016,03,30,15,54,18.30
2016,03,30,15,55,18.30
2016,03,30,15,56,18.30
2016,03,30,15,57,18.30
2016,03,30,15,58,18.30
2016,03,30,15,59,18.30
2016,03,30,16,00,18.30
2016,03,30,16,01,18.30
2016,03,30,16,02,18.30
2016,03,30,16,03,18.30
2016,03,30,16,04,18.30
2016,03,30,16,05,18.30
2016,03,30,16,06,18.30
2016,03,30,16,07,18.40
2016,03,30,16,08,18.30
2016,03,30,16,09,18.20
2016,03,30,16,10,18.10
2016,03,30,16,11,18.10
2016,03,30,16,12,18.00
2016,03,30,16,13,18.00
2016,03,30,16,14,18.00
2016,03,30,16,15,18.00
2016,03,30,16,16,18.00
2016,03,30,16,17,17.90
2016,03,30,16,18,17.90
2016,03,30,16,19,17.80
2016,03,30,16,20,17.80
2016,03,30,16,21,17.80
2016,03,30,16,22,17.80
2016,03,30,16,23,17.70
2016,03,30,16,24,17.70
2016,03,30,16,25,17.70
2016,03,30,16,26,17.70
2016,03,30,16,27,17.70
2016,03,30,16,28,17.70
2016,03,30,16,29,17.70
2016,03,30,16,30,17.60
2016,03,30,16,31,17.60
2016,03,30,16,32,17.60
2016,03,30,16,33,17.50
2016,03,30,16,34,17.50
2016,03,30,16,35,17.40
2016,03,30,16,36,17.40
2016,03,30,16,37,17.30
2016,03,30,16,38,17.20
2016,03,30,16,39,17.20
2016,03,30,16,40,17.20
2016,03,30,16,41,17.20
2016,03,30,16,42,17.20
2016,03,30,16,43,17.20
2016,03,30,16,44,17.20
2016,03,30,16,45,17.20
2016,03,30,16,46,17.30
2016,03,30,16,47,17.30
2016,03,30,16,48,17.30
2016,03,30,16,49,17.30
2016,03,30,16,50,17.30
2016,03,30,16,51,17.30
2016,03,30,16,52,17.30
2016,03,30,16,53,17.30
2016,03,30,16,54,17.30
2016,03,30,16,55,17.30
2016,03,30,16,56,17.30
2016,03,30,16,57,17.30
2016,03,30,16,58,17.20
2016,03,30,16,59,17.20
2016,03,30,17,00,17.20
2016,03,30,17,01,17.10
2016,03,30,17,02,17.20
2016,03,30,17,03,17.20
2016,03,30,17,04,17.10
2016,03,30,17,05,17.10
2016,03,30,17,06,17.10
2016,03,30,17,07,17.10
2016,03,30,17,08,17.10
2016,03,30,17,09,17.00
2016,03,30,17,10,17.00
2016,03,30,17,11,17.00
2016,03,30,17,12,16.90
2016,03,30,17,13,16.90
2016,03,30,17,14,16.80
2016,03,30,17,15,16.80
2016,03,30,17,16,16.80
2016,03,30,17,17,16.80
2016,03,30,17,18,16.80
2016,03,30,17,19,16.80
2016,03,30,17,20,16.80
2016,03,30,17,21,16.80
2016,03,30,17,22,16.70
2016,03,30,17,23,16.70
2016,03,30,17,24,16.70
2016,03,30,17,25,16.60
2016,03,30,17,26,16.60
2016,03,30,17,27,16.50
2016,03,30,17,28,16.50
2016,03,30,17,29,16.40
2016,03,30,17,30,16.40
2016,03,30,17,31,16.30
2016,03,30,17,32,16.30
2016,03,30,17,33,16.30
2016,03,30,17,34,16.30
2016,03,30,17,35,16.30
2016,03,30,17,36,16.30
2016,03,30,17,37,16.30
2016,03,30,17,38,16.30
2016,03,30,17,39,16.20
2016,03,30,17,40,16.20
2016,03,30,17,41,16.20
2016,03,30,17,42,16.20
2016,03,30,17,43,16.10
2016,03,30,17,44,16.10
2016,03,30,17,45,16.10